Year,Month,Day,Hour,Minute,Value (Times are PST for insolation in W/m^2)
2017,11,03,10,54,11.00
2017,11,03,10,55,11.00
2017,11,03,10,56,11.00
2017,11,03,10,57,11.00
2017,11,03,10,58,11.00
2017,11,03,10,59,11.00
2017,11,03,11,00,11.60
2017,11,03,11,01,9.90
2017,11,03,11,02,12.60
2017,11,03,11,03,14.00
2017,11,03,11,04,14.00
2017,11,03,11,05,14.00
2017,11,03,11,06,13.90
2017,11,03,11,07,11.70
2017,11,03,11,08,10.10
2017,11,03,11,09,16.00
2017,11,03,11,10,14.80
2017,11,03,11,11,14.10
2017,11,03,11,12,18.00
2017,11,03,11,13,17.10
2017,11,03,11,14,16.00
2017,11,03,11,15,14.80
2017,11,03,11,16,14.00
2017,11,03,11,17,12.60
2017,11,03,11,18,13.50
2017,11,03,11,19,14.00
2017,11,03,11,20,15.80
2017,11,03,11,21,16.00
2017,11,03,11,22,16.00
2017,11,03,11,23,16.00
2017,11,03,11,24,16.00
2017,11,03,11,25,16.00
2017,11,03,11,26,16.00
2017,11,03,11,27,16.00
2017,11,03,11,28,16.00
2017,11,03,11,29,16.00
2017,11,03,11,30,16.00
2017,11,03,11,31,16.00
2017,11,03,11,32,16.00
2017,11,03,11,33,16.00
2017,11,03,11,34,16.00
2017,11,03,11,35,17.80
2017,11,03,11,36,18.00
2017,11,03,11,37,18.00
2017,11,03,11,38,18.00
2017,11,03,11,39,18.00
2017,11,03,11,40,18.00
2017,11,03,11,41,18.40
2017,11,03,11,42,19.00
2017,11,03,11,43,19.00
2017,11,03,11,44,19.00
2017,11,03,11,45,19.00
2017,11,03,11,46,19.00
2017,11,03,11,47,19.00
2017,11,03,11,48,20.60
2017,11,03,11,49,21.00
2017,11,03,11,50,21.00
2017,11,03,11,51,21.00
2017,11,03,11,52,21.00
2017,11,03,11,53,21.00
2017,11,03,11,54,21.00
2017,11,03,11,55,21.50
2017,11,03,11,56,23.00
2017,11,03,11,57,23.00
2017,11,03,11,58,23.90
2017,11,03,11,59,21.10
2017,11,03,12,00,24.00
2017,11,03,12,01,25.90
2017,11,03,12,02,25.70
2017,11,03,12,03,29.00
2017,11,03,12,04,22.40
2017,11,03,12,05,25.50
2017,11,03,12,06,18.60
2017,11,03,12,07,29.60
2017,11,03,12,08,26.30
2017,11,03,12,09,27.50
2017,11,03,12,10,25.70
2017,11,03,12,11,25.30
2017,11,03,12,12,21.20
2017,11,03,12,13,19.50
2017,11,03,12,14,18.20
2017,11,03,12,15,18.80
2017,11,03,12,16,26.20
2017,11,03,12,17,28.00
2017,11,03,12,18,31.20
2017,11,03,12,19,21.50
2017,11,03,12,20,16.30
2017,11,03,12,21,19.00
2017,11,03,12,22,21.00
2017,11,03,12,23,21.30
2017,11,03,12,24,22.00
2017,11,03,12,25,19.60
2017,11,03,12,26,22.40
2017,11,03,12,27,24.20
2017,11,03,12,28,23.90
2017,11,03,12,29,25.50
2017,11,03,12,30,26.00
2017,11,03,12,31,27.40
2017,11,03,12,32,26.60
2017,11,03,12,33,26.00
2017,11,03,12,34,25.10
2017,11,03,12,35,25.00
2017,11,03,12,36,23.10
2017,11,03,12,37,23.00
2017,11,03,12,38,23.40
2017,11,03,12,39,25.60
2017,11,03,12,40,27.50
2017,11,03,12,41,25.70
2017,11,03,12,42,25.00
2017,11,03,12,43,25.00
2017,11,03,12,44,27.60
2017,11,03,12,45,26.90
2017,11,03,12,46,28.40
2017,11,03,12,47,33.50
2017,11,03,12,48,36.50
2017,11,03,12,49,27.60
2017,11,03,12,50,27.80
2017,11,03,12,51,32.90
2017,11,03,12,52,34.70
2017,11,03,12,53,32.20
2017,11,03,12,54,32.80
2017,11,03,12,55,31.50
2017,11,03,12,56,31.00
2017,11,03,12,57,33.00
2017,11,03,12,58,36.30
2017,11,03,12,59,37.20
2017,11,03,13,00,33.20
2017,11,03,13,01,36.80
2017,11,03,13,02,39.00
2017,11,03,13,03,32.10
2017,11,03,13,04,40.10
2017,11,03,13,05,52.80
2017,11,03,13,06,41.20
2017,11,03,13,07,51.70
2017,11,03,13,08,56.30
2017,11,03,13,09,47.40
2017,11,03,13,10,49.00
2017,11,03,13,11,48.30
2017,11,03,13,12,45.70
2017,11,03,13,13,41.60
2017,11,03,13,14,42.50
2017,11,03,13,15,55.70
2017,11,03,13,16,53.90
2017,11,03,13,17,46.80
2017,11,03,13,18,78.00
2017,11,03,13,19,89.70
2017,11,03,13,20,92.70
2017,11,03,13,21,54.30
2017,11,03,13,22,77.80
2017,11,03,13,23,65.70
2017,11,03,13,24,65.60
2017,11,03,13,25,91.80
2017,11,03,13,26,85.30
2017,11,03,13,27,51.90
2017,11,03,13,28,42.00
2017,11,03,13,29,47.50
2017,11,03,13,30,57.20
2017,11,03,13,31,86.00
2017,11,03,13,32,110.90
2017,11,03,13,33,110.40
2017,11,03,13,34,107.30
2017,11,03,13,35,105.10
2017,11,03,13,36,102.70
2017,11,03,13,37,66.00
2017,11,03,13,38,96.80
2017,11,03,13,39,64.80
2017,11,03,13,40,62.30
2017,11,03,13,41,71.10
2017,11,03,13,42,70.80
2017,11,03,13,43,83.50
2017,11,03,13,44,113.90
2017,11,03,13,45,119.80
2017,11,03,13,46,89.40
2017,11,03,13,47,63.80
2017,11,03,13,48,86.00
2017,11,03,13,49,64.90
2017,11,03,13,50,114.90
2017,11,03,13,51,65.00
2017,11,03,13,52,68.00
2017,11,03,13,53,95.30
2017,11,03,13,54,92.00
2017,11,03,13,55,78.60
2017,11,03,13,56,81.70
2017,11,03,13,57,79.00
2017,11,03,13,58,131.00
2017,11,03,13,59,162.60
2017,11,03,14,00,169.40
2017,11,03,14,01,188.50
2017,11,03,14,02,194.90
2017,11,03,14,03,182.80
2017,11,03,14,04,200.10
2017,11,03,14,05,229.20
2017,11,03,14,06,250.00
2017,11,03,14,07,270.20
2017,11,03,14,08,269.70
2017,11,03,14,09,202.00
2017,11,03,14,10,202.00
2017,11,03,14,11,198.00
2017,11,03,14,12,190.00
2017,11,03,14,13,289.50
2017,11,03,14,14,411.00
2017,11,03,14,15,411.00
2017,11,03,14,16,411.00
2017,11,03,14,17,230.40
2017,11,03,14,18,210.90
2017,11,03,14,19,229.00
2017,11,03,14,20,229.00
2017,11,03,14,21,341.00
2017,11,03,14,22,341.00
2017,11,03,14,23,341.00
2017,11,03,14,24,341.00
2017,11,03,14,25,431.30
2017,11,03,14,26,675.90
2017,11,03,14,27,634.50
2017,11,03,14,28,598.00
2017,11,03,14,29,598.00
2017,11,03,14,30,528.40
2017,11,03,14,31,514.90
2017,11,03,14,32,529.00
2017,11,03,14,33,529.00
2017,11,03,14,34,529.00
2017,11,03,14,35,280.60
2017,11,03,14,36,253.00
2017,11,03,14,37,463.30
2017,11,03,14,38,435.10
2017,11,03,14,39,409.80
2017,11,03,14,40,394.30
2017,11,03,14,41,385.50
2017,11,03,14,42,381.00
2017,11,03,14,43,380.50
2017,11,03,14,44,380.00
2017,11,03,14,45,384.00
2017,11,03,14,46,387.00
2017,11,03,14,47,387.00
2017,11,03,14,48,387.00
2017,11,03,14,49,387.00
2017,11,03,14,50,191.80
2017,11,03,14,51,181.00
2017,11,03,14,52,383.00
2017,11,03,14,53,380.20
2017,11,03,14,54,369.00
2017,11,03,14,55,369.00
2017,11,03,14,56,369.60
2017,11,03,14,57,371.00
2017,11,03,14,58,371.00
2017,11,03,14,59,372.60
2017,11,03,15,00,374.00
2017,11,03,15,01,367.00
2017,11,03,15,02,318.30
2017,11,03,15,03,304.00
2017,11,03,15,04,304.00
2017,11,03,15,05,360.70
2017,11,03,15,06,370.70
2017,11,03,15,07,366.30
2017,11,03,15,08,369.30
2017,11,03,15,09,371.00
2017,11,03,15,10,290.30
2017,11,03,15,11,102.00
2017,11,03,15,12,102.00
2017,11,03,15,13,96.60
2017,11,03,15,14,91.70
2017,11,03,15,15,106.80
2017,11,03,15,16,122.20
2017,11,03,15,17,132.00
2017,11,03,15,18,173.20
2017,11,03,15,19,262.50
2017,11,03,15,20,350.30
2017,11,03,15,21,359.00
2017,11,03,15,22,136.80
2017,11,03,15,23,115.20
2017,11,03,15,24,110.60
2017,11,03,15,25,109.00
2017,11,03,15,26,109.00
2017,11,03,15,27,123.80
2017,11,03,15,28,142.00
2017,11,03,15,29,142.00
2017,11,03,15,30,111.40
2017,11,03,15,31,91.00
2017,11,03,15,32,91.00
2017,11,03,15,33,91.00
2017,11,03,15,34,273.80
2017,11,03,15,35,296.10
2017,11,03,15,36,272.00
2017,11,03,15,37,237.00
2017,11,03,15,38,223.40
2017,11,03,15,39,146.40
2017,11,03,15,40,172.00
2017,11,03,15,41,249.40
2017,11,03,15,42,262.00
2017,11,03,15,43,253.50
2017,11,03,15,44,248.50
2017,11,03,15,45,251.40
2017,11,03,15,46,247.40
2017,11,03,15,47,221.50
2017,11,03,15,48,219.00
2017,11,03,15,49,221.00
2017,11,03,15,50,66.20
2017,11,03,15,51,58.00
2017,11,03,15,52,229.50
2017,11,03,15,53,224.40
2017,11,03,15,54,218.60
2017,11,03,15,55,211.10
2017,11,03,15,56,215.30
2017,11,03,15,57,213.60
2017,11,03,15,58,211.00
2017,11,03,15,59,209.00
2017,11,03,16,00,206.10
2017,11,03,16,01,201.30
2017,11,03,16,02,197.90
2017,11,03,16,03,193.80
2017,11,03,16,04,190.50
2017,11,03,16,05,190.00
2017,11,03,16,06,189.80
2017,11,03,16,07,185.90
2017,11,03,16,08,184.40
2017,11,03,16,09,180.00
2017,11,03,16,10,174.50
2017,11,03,16,11,171.00
2017,11,03,16,12,168.70
2017,11,03,16,13,130.40
2017,11,03,16,14,62.70
2017,11,03,16,15,78.00
2017,11,03,16,16,139.70
2017,11,03,16,17,156.50
2017,11,03,16,18,153.50
2017,11,03,16,19,151.30
2017,11,03,16,20,149.20
2017,11,03,16,21,146.10
2017,11,03,16,22,143.70
2017,11,03,16,23,140.70
2017,11,03,16,24,138.60
2017,11,03,16,25,136.20
2017,11,03,16,26,132.60
2017,11,03,16,27,129.20
2017,11,03,16,28,126.70
2017,11,03,16,29,124.00
2017,11,03,16,30,121.20
2017,11,03,16,31,118.60
2017,11,03,16,32,115.20
2017,11,03,16,33,111.60
2017,11,03,16,34,109.30
2017,11,03,16,35,105.60
2017,11,03,16,36,104.00
2017,11,03,16,37,101.60
2017,11,03,16,38,97.80
2017,11,03,16,39,96.60
2017,11,03,16,40,93.80
2017,11,03,16,41,90.60
2017,11,03,16,42,89.10
2017,11,03,16,43,86.00
2017,11,03,16,44,83.40
2017,11,03,16,45,81.80
2017,11,03,16,46,79.60
2017,11,03,16,47,77.60
2017,11,03,16,48,74.80
2017,11,03,16,49,74.00
2017,11,03,16,50,70.40
2017,11,03,16,51,68.90
2017,11,03,16,52,66.80
2017,11,03,16,53,64.70
2017,11,03,16,54,62.40
2017,11,03,16,55,59.40
2017,11,03,16,56,57.30
2017,11,03,16,57,55.20
2017,11,03,16,58,53.50
2017,11,03,16,59,52.00
2017,11,03,17,00,49.80
2017,11,03,17,01,47.60
2017,11,03,17,02,46.30
2017,11,03,17,03,44.50
2017,11,03,17,04,44.00
2017,11,03,17,05,42.20
2017,11,03,17,06,39.90
2017,11,03,17,07,38.80
2017,11,03,17,08,36.70
2017,11,03,17,09,34.60
2017,11,03,17,10,32.70
2017,11,03,17,11,32.00
2017,11,03,17,12,31.20
2017,11,03,17,13,29.10
2017,11,03,17,14,26.90
2017,11,03,17,15,26.00
2017,11,03,17,16,25.40
2017,11,03,17,17,25.00
2017,11,03,17,18,23.50
2017,11,03,17,19,23.00
2017,11,03,17,20,21.20
2017,11,03,17,21,21.00
2017,11,03,17,22,19.00
2017,11,03,17,23,19.00
2017,11,03,17,24,19.00
2017,11,03,17,25,18.80
2017,11,03,17,26,18.00
2017,11,03,17,27,18.00
2017,11,03,17,28,18.00
2017,11,03,17,29,17.00
2017,11,03,17,30,16.00
2017,11,03,17,31,16.00
2017,11,03,17,32,16.00
2017,11,03,17,33,14.50
2017,11,03,17,34,14.00
2017,11,03,17,35,14.00
2017,11,03,17,36,14.00
2017,11,03,17,37,12.00
2017,11,03,17,38,12.00
2017,11,03,17,39,11.80
2017,11,03,17,40,11.00
2017,11,03,17,41,11.00
2017,11,03,17,42,10.20
2017,11,03,17,43,9.00
2017,11,03,17,44,9.00
2017,11,03,17,45,7.80
2017,11,03,17,46,7.00
2017,11,03,17,47,7.00
2017,11,03,17,48,7.00
2017,11,03,17,49,7.00
2017,11,03,17,50,5.20
2017,11,03,17,51,5.00
2017,11,03,17,52,5.00
2017,11,03,17,53,5.00
2017,11,03,17,54,3.80
2017,11,03,17,55,0.00
2017,11,03,17,56,0.00
2017,11,03,17,57,0.00
2017,11,03,17,58,0.00
2017,11,03,17,59,0.00
2017,11,03,18,00,0.00
2017,11,03,18,01,0.00
2017,11,03,18,02,0.00
2017,11,03,18,03,0.00
2017,11,03,18,04,0.00
2017,11,03,18,05,0.00
2017,11,03,18,06,0.00
2017,11,03,18,07,0.00
2017,11,03,18,08,0.00
2017,11,03,18,09,0.00
2017,11,03,18,10,0.00
2017,11,03,18,11,0.00
2017,11,03,18,12,0.00
2017,11,03,18,13,0.00
2017,11,03,18,14,0.00
2017,11,03,18,15,0.00
2017,11,03,18,16,0.00
2017,11,03,18,17,0.00
2017,11,03,18,18,0.00
2017,11,03,18,19,0.00
2017,11,03,18,20,0.00
2017,11,03,18,21,0.00
2017,11,03,18,22,0.00
2017,11,03,18,23,0.00
2017,11,03,18,24,0.00
2017,11,03,18,25,0.00
2017,11,03,18,26,0.00
2017,11,03,18,27,0.00
2017,11,03,18,28,0.00
2017,11,03,18,29,0.00
2017,11,03,18,30,0.00
2017,11,03,18,31,0.00
2017,11,03,18,32,0.00
2017,11,03,18,33,0.00
2017,11,03,18,34,0.00
2017,11,03,18,35,0.00
2017,11,03,18,36,0.00
2017,11,03,18,37,0.00
2017,11,03,18,38,0.00
2017,11,03,18,39,0.00
2017,11,03,18,40,0.00
2017,11,03,18,41,0.00
2017,11,03,18,42,0.00
2017,11,03,18,43,0.00
2017,11,03,18,44,0.00
2017,11,03,18,45,0.00
2017,11,03,18,46,0.00
2017,11,03,18,47,0.00
2017,11,03,18,48,0.00
2017,11,03,18,49,0.00
2017,11,03,18,50,0.00
2017,11,03,18,51,0.00
2017,11,03,18,52,0.00
2017,11,03,18,53,0.00
2017,11,03,18,54,0.00
2017,11,03,18,55,0.00
2017,11,03,18,56,0.00
2017,11,03,18,57,0.00
2017,11,03,18,58,0.00
2017,11,03,18,59,0.00
2017,11,03,19,00,0.00
2017,11,03,19,01,0.00
2017,11,03,19,02,0.00
2017,11,03,19,03,0.00
2017,11,03,19,04,0.00
2017,11,03,19,05,0.00
2017,11,03,19,06,0.00
2017,11,03,19,07,0.00
2017,11,03,19,08,0.00
2017,11,03,19,09,0.00
2017,11,03,19,10,0.00
2017,11,03,19,11,0.00
2017,11,03,19,12,0.00
2017,11,03,19,13,0.00
2017,11,03,19,14,0.00
2017,11,03,19,15,0.00
2017,11,03,19,16,0.00
2017,11,03,19,17,0.00
2017,11,03,19,18,0.00
2017,11,03,19,19,0.00
2017,11,03,19,20,0.00
2017,11,03,19,21,0.00
2017,11,03,19,22,0.00
2017,11,03,19,23,0.00
2017,11,03,19,24,0.00
2017,11,03,19,25,0.00
2017,11,03,19,26,0.00
2017,11,03,19,27,0.00
2017,11,03,19,28,0.00
2017,11,03,19,29,0.00
2017,11,03,19,30,0.00
2017,11,03,19,31,0.00
2017,11,03,19,32,0.00
2017,11,03,19,33,0.00
2017,11,03,19,34,0.00
2017,11,03,19,35,0.00
2017,11,03,19,36,0.00
2017,11,03,19,37,0.00
2017,11,03,19,38,0.00
2017,11,03,19,39,0.00
2017,11,03,19,40,0.00
2017,11,03,19,41,0.00
2017,11,03,19,42,0.00
2017,11,03,19,43,0.00
2017,11,03,19,44,0.00
2017,11,03,19,45,0.00
2017,11,03,19,46,0.00
2017,11,03,19,47,0.00
2017,11,03,19,48,0.00
2017,11,03,19,49,0.00
2017,11,03,19,50,0.00
2017,11,03,19,51,0.00
2017,11,03,19,52,0.00
2017,11,03,19,53,0.00
2017,11,03,19,54,0.00
2017,11,03,19,55,0.00
2017,11,03,19,56,0.00
2017,11,03,19,57,0.00
2017,11,03,19,58,0.00
2017,11,03,19,59,0.00
2017,11,03,20,00,0.00
2017,11,03,20,01,0.00
2017,11,03,20,02,0.00
2017,11,03,20,03,0.00
2017,11,03,20,04,0.00
2017,11,03,20,05,0.00
2017,11,03,20,06,0.00
2017,11,03,20,07,0.00
2017,11,03,20,08,0.00
2017,11,03,20,09,0.00
2017,11,03,20,10,0.00
2017,11,03,20,11,0.00
2017,11,03,20,12,0.00
2017,11,03,20,13,0.00
2017,11,03,20,14,0.00
2017,11,03,20,15,0.00
2017,11,03,20,16,0.00
2017,11,03,20,17,0.00
2017,11,03,20,18,0.00
2017,11,03,20,19,0.00
2017,11,03,20,20,0.00
2017,11,03,20,21,0.00
2017,11,03,20,22,0.00
2017,11,03,20,23,0.00
2017,11,03,20,24,0.00
2017,11,03,20,25,0.00
2017,11,03,20,26,0.00
2017,11,03,20,27,0.00
2017,11,03,20,28,0.00
2017,11,03,20,29,0.00
2017,11,03,20,30,0.00
2017,11,03,20,31,0.00
2017,11,03,20,32,0.00
2017,11,03,20,33,0.00
2017,11,03,20,34,0.00
2017,11,03,20,35,0.00
2017,11,03,20,36,0.00
2017,11,03,20,37,0.00
2017,11,03,20,38,0.00
2017,11,03,20,39,0.00
2017,11,03,20,40,0.00
2017,11,03,20,41,0.00
2017,11,03,20,42,0.00
2017,11,03,20,43,0.00
2017,11,03,20,44,0.00
2017,11,03,20,45,0.00
2017,11,03,20,46,0.00
2017,11,03,20,47,0.00
2017,11,03,20,48,0.00
2017,11,03,20,49,0.00
2017,11,03,20,50,0.00
2017,11,03,20,51,0.00
2017,11,03,20,52,0.00
2017,11,03,20,53,0.00
2017,11,03,20,54,0.00
2017,11,03,20,55,0.00
2017,11,03,20,56,0.00
2017,11,03,20,57,0.00
2017,11,03,20,58,0.00
2017,11,03,20,59,0.00
2017,11,03,21,00,0.00
2017,11,03,21,01,0.00
2017,11,03,21,02,0.00
2017,11,03,21,03,0.00
2017,11,03,21,04,0.00
2017,11,03,21,05,0.00
2017,11,03,21,06,0.00
2017,11,03,21,07,0.00
2017,11,03,21,08,0.00
2017,11,03,21,09,0.00
2017,11,03,21,10,0.00
2017,11,03,21,11,0.00
2017,11,03,21,12,0.00
2017,11,03,21,13,0.00
2017,11,03,21,14,0.00
2017,11,03,21,15,0.00
2017,11,03,21,16,0.00
2017,11,03,21,17,0.00
2017,11,03,21,18,0.00
2017,11,03,21,19,0.00
2017,11,03,21,20,0.00
2017,11,03,21,21,0.00
2017,11,03,21,22,0.00
2017,11,03,21,23,0.00
2017,11,03,21,24,0.00
2017,11,03,21,25,0.00
2017,11,03,21,26,0.00
2017,11,03,21,27,0.00
2017,11,03,21,28,0.00
2017,11,03,21,29,0.00
2017,11,03,21,30,0.00
2017,11,03,21,31,0.00
2017,11,03,21,32,0.00
2017,11,03,21,33,0.00
2017,11,03,21,34,0.00
2017,11,03,21,35,0.00
2017,11,03,21,36,0.00
2017,11,03,21,37,0.00
2017,11,03,21,38,0.00
2017,11,03,21,39,0.00
2017,11,03,21,40,0.00
2017,11,03,21,41,0.00
2017,11,03,21,42,0.00
2017,11,03,21,43,0.00
2017,11,03,21,44,0.00
2017,11,03,21,45,0.00
2017,11,03,21,46,0.00
2017,11,03,21,47,0.00
2017,11,03,21,48,0.00
2017,11,03,21,49,0.00
2017,11,03,21,50,0.00
2017,11,03,21,51,0.00
2017,11,03,21,52,0.00
2017,11,03,21,53,0.00
2017,11,03,21,54,0.00
2017,11,03,21,55,0.00
2017,11,03,21,56,0.00
2017,11,03,21,57,0.00
2017,11,03,21,58,0.00
2017,11,03,21,59,0.00
2017,11,03,22,00,0.00
2017,11,03,22,01,0.00
2017,11,03,22,02,0.00
2017,11,03,22,03,0.00
2017,11,03,22,04,0.00
2017,11,03,22,05,0.00
2017,11,03,22,06,0.00
2017,11,03,22,07,0.00
2017,11,03,22,08,0.00
2017,11,03,22,09,0.00
2017,11,03,22,10,0.00
2017,11,03,22,11,0.00
2017,11,03,22,12,0.00
2017,11,03,22,13,0.00
2017,11,03,22,14,0.00
2017,11,03,22,15,0.00
2017,11,03,22,16,0.00
2017,11,03,22,17,0.00
2017,11,03,22,18,0.00
2017,11,03,22,19,0.00
2017,11,03,22,20,0.00
2017,11,03,22,21,0.00
2017,11,03,22,22,0.00
2017,11,03,22,23,0.00
2017,11,03,22,24,0.00
2017,11,03,22,25,0.00
2017,11,03,22,26,0.00
2017,11,03,22,27,0.00
2017,11,03,22,28,0.00
2017,11,03,22,29,0.00
2017,11,03,22,30,0.00
2017,11,03,22,31,0.00
2017,11,03,22,32,0.00
2017,11,03,22,33,0.00
2017,11,03,22,34,0.00
2017,11,03,22,35,0.00
2017,11,03,22,36,0.00
2017,11,03,22,37,0.00
2017,11,03,22,38,0.00
2017,11,03,22,39,0.00
2017,11,03,22,40,0.00
2017,11,03,22,41,0.00
2017,11,03,22,42,0.00
2017,11,03,22,43,0.00
2017,11,03,22,44,0.00
2017,11,03,22,45,0.00
2017,11,03,22,46,0.00
2017,11,03,22,47,0.00
2017,11,03,22,48,0.00
2017,11,03,22,49,0.00
2017,11,03,22,50,0.00
2017,11,03,22,51,0.00
2017,11,03,22,52,0.00
2017,11,03,22,53,0.00
2017,11,03,22,54,0.00
2017,11,03,22,55,0.00
2017,11,03,22,56,0.00
2017,11,03,22,57,0.00
2017,11,03,22,58,0.00
2017,11,03,22,59,0.00
2017,11,03,23,00,0.00
2017,11,03,23,01,0.00
2017,11,03,23,02,0.00
2017,11,03,23,03,0.00
2017,11,03,23,04,0.00
2017,11,03,23,05,0.00
2017,11,03,23,06,0.00
2017,11,03,23,07,0.00
2017,11,03,23,08,0.00
2017,11,03,23,09,0.00
2017,11,03,23,10,0.00
2017,11,03,23,11,0.00
2017,11,03,23,12,0.00
2017,11,03,23,13,0.00
2017,11,03,23,14,0.00
2017,11,03,23,15,0.00
2017,11,03,23,16,0.00
2017,11,03,23,17,0.00
2017,11,03,23,18,0.00
2017,11,03,23,19,0.00
2017,11,03,23,20,0.00
2017,11,03,23,21,0.00
2017,11,03,23,22,0.00
2017,11,03,23,23,0.00
2017,11,03,23,24,0.00
2017,11,03,23,25,0.00
2017,11,03,23,26,0.00
2017,11,03,23,27,0.00
2017,11,03,23,28,0.00
2017,11,03,23,29,0.00
2017,11,03,23,30,0.00
2017,11,03,23,31,0.00
2017,11,03,23,32,0.00
2017,11,03,23,33,0.00
2017,11,03,23,34,0.00
2017,11,03,23,35,0.00
2017,11,03,23,36,0.00
2017,11,03,23,37,0.00
2017,11,03,23,38,0.00
2017,11,03,23,39,0.00
2017,11,03,23,40,0.00
2017,11,03,23,41,0.00
2017,11,03,23,42,0.00
2017,11,03,23,43,0.00
2017,11,03,23,44,0.00
2017,11,03,23,45,0.00
2017,11,03,23,46,0.00
2017,11,03,23,47,0.00
2017,11,03,23,48,0.00
2017,11,03,23,49,0.00
2017,11,03,23,50,0.00
2017,11,03,23,51,0.00
2017,11,03,23,52,0.00
2017,11,03,23,53,0.00
2017,11,03,23,54,0.00
2017,11,03,23,55,0.00
2017,11,03,23,56,0.00
2017,11,03,23,57,0.00
2017,11,03,23,58,0.00
2017,11,03,23,59,0.00
